Location: Bh?mavarapp?du
(16.7041°N, 80.6518°E)
Time: 07:33:06
(UTC+00:00)

NOSS 3-2 (C) - Pass Details

Date: 21 April 2021
Orbit: 783 x 1429 km, 63.4° (Epoch: 11 April)

Event Time Altitude Azimuth Distance (km) Brightness Sun altitude
Rises 14:11:18 0° 331° (NNW) 4,274 7.6 -18.5°
Reaches altitude 10° 14:14:02 10° 330° (NNW) 3,369 7.0 -19.2°
Maximum altitude 14:22:25 72° 247° (WSW) 1,471 4.4 -21.0°
Enters shadow 14:30:24 13° 165° (SSE) 3,262 5.9 -22.8°
